Skip Page Navigation
NASA JPL Caltech
NASA Logo - Jet Propulsion Laboratory + View the NASA Portal
+ Near-Earth Object (NEO) Program
Search JPL
JPL Home Earth Solar System Stars & Galaxies Technology
JPL Solar System Dynamics
BODIES ORBITS EPHEMERIDES TOOLS PHYSICAL DATA DISCOVERY FAQ SITE MAP
JPL Small-Body Database Browser
Search: [ help ]  
12923 Zephyr (1999 GK4)
Classification: Apollo [NEO, PHA]          SPK-ID: 2012923
Ephemeris | Orbit Diagram | Orbital Elements | Physical Parameters | Discovery Circumstances | Close-Approach Data ]

[ hide orbit diagram ]
Orbit Diagram
Note: Make sure you have Java enabled on your browser to see the applet. This applet is provided as a 3D orbit visualization tool. The applet was implemented using 2-body methods, and hence should not be used for determining accurate long-term trajectories (over several years or decades) or planetary encounter circumstances. For accurate long-term ephemerides, please instead use our Horizons system.
Orbit Viewer

Additional Notes: the orbits shown in the applet are color coded. The planets are white lines, and the asteroid/comet is a blue line. The bright white line indicates the portion of the orbit that is above the ecliptic plane, and the darker portion is below the ecliptic plane. Likewise for the asteroid/comet orbit, the light blue indicates the portion above the ecliptic plane, and the dark blue the portion below the ecliptic plane.

Orbit Viewer applet originally written and kindly provided by Osamu Ajiki (AstroArts), and further modified by Ron Baalke (JPL).


Orbital Elements at Epoch 2456400.5 (2013-Apr-18.0) TDB
Reference: JPL 144 (heliocentric ecliptic J2000)
 Element Value Uncertainty (1-sigma)   Units 
e .4914351297738366 5.2205e-08  
a 1.962127913221515 6.649e-09 AU
q .9978693275546326 1.0199e-07 AU
i 5.289296794097655 6.5964e-06 deg
node 168.3557658199326 5.7818e-05 deg
peri 146.7527320940758 5.8383e-05 deg
M 345.7957632019878 7.4447e-06 deg
tp 2456440.109996499611
(2013-May-27.60999650)
2.0858e-05 JED
period 1003.897565397908
2.75
5.1028e-06
1.397e-08
d
yr
n .3586023239904057 1.8228e-09 deg/d
Q 2.926386498888398 9.9165e-09 AU
  Orbit Determination Parameters
   # obs. used (total)      817  
   data-arc span      20851 days (57.09 yr)  
   first obs. used      1955-04-21  
   last obs. used      2012-05-22  
   planetary ephem.      DE405  
   SB-pert. ephem.      SB405-CPV-2  
   condition code      0  
   fit RMS      .54954  
   data source      ORB  
   producer      Otto Matic  
   solution date      2013-Apr-29 15:37:55  

Additional Information
 Earth MOID = .0224033 AU 
 T_jup = 3.717 
[ show covariance matrix ]

Ephemeris | Orbit Diagram | Orbital Elements | Physical Parameters | Discovery Circumstances | Close-Approach Data ]

Physical Parameter Table
Parameter Symbol Value Units Sigma Reference Notes
absolute magnitude H 16.1 mag n/a PDS3 (MPC 37098)  
rotation period rot_per 3.891 h n/a Asteroid Lightcurve DataBase (Rev. 2013-May-01) Incomplete or inconclusive result.
Published Reference List:
[Pravec, P.; Wolf, M.; Sarounova, L. (1999) http://www.asu.cas.cz/~ppravec/neo.htm]
SMASSII spectral type spec_B S:   n/a Binzel et al. (2004) Icarus 170, 259-294 SMASSIR data only, classification consistent with specified type, but uncertain

12923 Zephyr           Discovered 1999 Apr. 11 by the Lowell Observatory Near-Earth Object Search at the Anderson Mesa Station.
The word zephyr derives from the name of the ancient Greek god of the west wind, Zephyros. The name was suggested by M. Smitherman.
NOTE: some special characters may not display properly (any characters within {} are an attempt to place the proper accent above a character)
Reference: 20040928/MPCPages.arcLast Updated: 2004-09-28

[ show close-approach data ]
Ephemeris | Orbit Diagram | Orbital Elements | Physical Parameters | Discovery Circumstances | Close-Approach Data ]
ABOUT SSD CREDITS/AWARDS PRIVACY/COPYRIGHT GLOSSARY LINKS
FirstGov 2013-May-23 14:12 UT
(server date/time)  
NASA Home Page
Site Manager:   Donald K. Yeomans
Webmaster  Alan B. Chamberlin